Regional Weather Roundup
Issued by NWS

Home | Current Version | Previous Version | Graphics & Text | Print | Product List | Glossary Off
Versions: 1 2 3 4 5 6 7 8 9 10 11 12 13 14 15 16 17 18 19 20 21 22 23 24 25 26 27 28 29 30 31 32 33 34 35 36 37 38 39 40 41 42 43 44 45 46 47 48 49 50

936
ASUS43 KTOP 241159
RWRKS

WEATHER ROUNDUP FOR KANSAS
NATIONAL WEATHER SERVICE GOODLAND KS
600 AM CST TUE JAN 24 2017

NOTE:  "FAIR" INDICATES FEW OR NO CLOUDS BELOW 12,000 FEET WITH NO
SIGNIFICANT WEATHER AND/OR OBSTRUCTIONS TO VISIBILITY.

KSZ001>006-013>018-027>032-041>047-241300-
NORTHWEST KANSAS

CITY           SKY/WX    TMP DP  RH WIND       PRES   REMARKS
GOODLAND       CLOUDY    29  28  96 NW13      29.43R FOG     WCI  19
6HR MIN TEMP:  28; 6HR MAX TEMP:  36;

HAYS           CLEAR     30  29  96 E10       29.45F WCI  21
HILL CITY      CLOUDY    32  32 100 E13       29.45F FOG     WCI  22
6HR MIN TEMP:  31; 6HR MAX TEMP:  34;

RUSSELL        CLEAR     30  28  92 E10       29.45F WCI  21
6HR MIN TEMP:  29; 6HR MAX TEMP:  40;

$$

KSZ061>065-074>080-084>089-241300-
SOUTHWEST KANSAS

CITY           SKY/WX    TMP DP  RH WIND       PRES   REMARKS
DODGE CITY     CLEAR     35  30  82 S9        29.44F
6HR MIN TEMP:  32; 6HR MAX TEMP:  43;

ELKHART          N/A     41  27  57 W13         N/A
GARDEN CITY    CLEAR     31  26  82 MISG      29.43S
6HR MIN TEMP:  31; 6HR MAX TEMP:  40;

GREAT BEND     CLEAR     31  29  92 SE10      29.47F WCI  22
LIBERAL          N/A     39  27  60 SW14      29.47R WCI  31
$$

KSZ066>073-081>083-090>101-241300-
SOUTHEAST KANSAS

CITY           SKY/WX    TMP DP  RH WIND       PRES   REMARKS
CHANUTE        CLEAR     40  32  73 E13       29.62F WCI  32
6HR MIN TEMP:  38; 6HR MAX TEMP:  41;

COFFEYVILLE    CLEAR     41  33  73 SE8       29.63F
6HR MIN TEMP:  39; 6HR MAX TEMP:  43;

HUTCHINSON     CLEAR     37  31  78 SE9       29.51F
6HR MIN TEMP:  37; 6HR MAX TEMP:  41;

MEDICINE LODGE   N/A     35  30  82 SE8       29.49F
NEWTON         CLEAR     35  31  85 SE12      29.54S WCI  27
PARSONS        CLEAR     43  33  68 SE7       29.63F
6HR MIN TEMP:  41; 6HR MAX TEMP:  45;

WICHITA INTL   CLEAR     39  32  76 S10       29.53S WCI  32
6HR MIN TEMP:  39; 6HR MAX TEMP:  44;

WICHITA JABRA  CLEAR     37  32  82 SE8       29.54S
6HR MIN TEMP:  37; 6HR MAX TEMP:  41;

WINFIELD       CLEAR     41  32  70 SE8       29.57S
6HR MIN TEMP:  40; 6HR MAX TEMP:  45;

$$

KSZ007>012-019>026-033>040-048>060-102>105-241300-
NORTHEAST KANSAS

CITY           SKY/WX    TMP DP  RH WIND       PRES   REMARKS
CONCORDIA      CLOUDY    36  32  85 E15       29.56F WCI  27
6HR MIN TEMP:  33; 6HR MAX TEMP:  36;

EMPORIA        CLEAR     35  32  88 E13       29.60F WCI  26
6HR MIN TEMP:  32; 6HR MAX TEMP:  37;

LAWRENCE       CLOUDY    33  31  92 E13       29.70F WCI  24
6HR MIN TEMP:  28; 6HR MAX TEMP:  33;

MANHATTAN      CLEAR     35  31  85 E9        29.61F
6HR MIN TEMP:  34; 6HR MAX TEMP:  36;

OLATHE IND     CLOUDY    33  30  88 E13       29.70F WCI  24
6HR MIN TEMP:  32; 6HR MAX TEMP:  33;

OLATHE EXE     MOCLDY    31  30  96 E13       29.71F WCI  21
6HR MIN TEMP:  31; 6HR MAX TEMP:  32;

SALINA           N/A    N/A N/A N/A MISG        N/A
TOPEKA BILLARD PTCLDY    34  30  85 E15       29.67F WCI  24
6HR MIN TEMP:  32; 6HR MAX TEMP:  34;

TOPEKA FORBES  CLOUDY    35  31  85 E14       29.65F WCI  26
6HR MIN TEMP:  32; 6HR MAX TEMP:  36;

$$




USA.gov is the U.S. government's official web portal to all federal, state and local government web resources and services.